Погода в Нижней Чигаре

Россия / Томская область     58°34′27″N   81°47′11″E
темп.,
°C
ветер,
м/с
пор.,
м/с
влажн.,
%
обл.,
%
осадки,
мм/ч
давл.,
гПа
погр.,
м
9 декабря, чт
чт901:00−19з379645 0.1 1034208
04:00−20зюз379670 0.0 1035208
07:00−19зюз31094100 0.0 1035301
10:00−17зюз41192100 0.0 1035325
13:00−15зюз51388100 0.0 1035405
16:00−13зюз51488100 0.0 1034496
19:00−13зюз51488100 0.0 1035464
22:00−14зюз5148957 0.0 1034406
10 декабря, пт
пт1001:00−15юз4129374 0.0 1034343
04:00−12зюз41093100 0.1 1034444
07:00−12зюз399391 0.3 1034394
10:00−12юз379567 0.1 1035262
13:00−12юз2794100 0.1 1035283
16:00−12ююз2695100 0.0 1035199
19:00−10ю3995100 0.1 1034319
22:00−8ююз41192100 0.2 1032404
11 декабря, сб
сб1101:00−8ююз51484100 0.2 1030427
04:00−8ююз51673100 0.0 1027480
07:00−8ююз61672100 0.0 1025540
10:00−8ююз61673100 0.0 1023589
13:00−7юз51377100 0.0 1022706
16:00−7юз4118799 0.0 1021651
19:00−8зюз41093100 0.1 1021539
22:00−10з4991100 0.1 1021445
12 декабря, вс
вс1201:00−14з379559 0.1 1021184
04:00−17з389640 0.0 1021205
07:00−18з389665 0.0 1021242
10:00−19з289768 0.0 1022203
13:00−17зсз389397 0.1 1022423
16:00−16зсз3792100 0.1 1023608
19:00−17зсз3893100 0.1 1024487
22:00−19зсз2696100 0.0 1025192
13 декабря, пн
пн1301:00−21з239989 0.1 102662
04:00−21з2597100 0.0 1026182
07:00−22зюз119974 0.0 102612
10:00−19з1292100 0.0 1026172
13:00−17зсз0191100 0.1 1026242
16:00−17св119497 0.1 1025177
19:00−18св129791 0.2 102692
22:00−19с139968 0.1 102682